Seattle, WA
on Sunday, January 13, 2013

Sunday
Previous Day Next Day
Daily Summary
 ActualAverageRecord
Temperature
Mean Temperature °F / °C 42°F / 6°C  
Max Temperature 36°F / 2°C 47°F / 8°C 56°F / 13°C (1986)
Min Temperature 24°F / -4°C 37°F / 3°C 11°F / -11°C (1950)
Degree Days
Heating Degree Days 35 23  
Month to date heating degree days 347 307  
Since 1 July heating degree days 2098 2245  
Cooling Degree Days 0 0  
Month to date cooling degree days 0 0  
Year to date cooling degree days 0 0  
Moisture
Dew Point 21°F / -6°C   
Average Humidity 69    
Maximum Humidity 81    
Minimum Humidity 56    
Precipitation
Precipitation 0.00 in / 0.00 cm 0.18 in / 4.57 cm 1.63 in / 4.14 cm (1970)
Month to date precipitation 2.71 2.45  
Year to date precipitation 2.71 2.45  
Snow
Snow 0.00 in / 0.00 cm in / cm 20.00 in / 50.80 cm (1950)
Month to date snowfall T  
Since 1 July snowfall 0.6  
Snow Depth 0.00 in / 0.00 cm   
Wind
Wind Speed 3 mph / 5 km/h   
Max Wind Speed 8 mph / 13 km/h   
Max Gust Speed 9 mph / 14 km/h   
Visibility 10 miles / 16 kilometers   
Events     

Key: T is trace of precipitation, MM is missing value
Source: NWS Daily Summary
Time(PST)TemperatureDew PointHumidity Pressure Visibility Wind DirectionWind SpeedGust SpeedPrecipitationEvents Conditions
12:53 AM 27.0°F / -2.8°C 21.9°F / -5.6°C 81% 30.47 in / 1031.6 hPa 10.0 miles / 16.1 kilometers ESE 5.8 mph / 9.3 km/h - N/A   Scattered Clouds
1:32 AM 26.6°F / -3.0°C 21.2°F / -6.0°C 80% 30.43 in / 1030.4 hPa 10.0 miles / 16.1 kilometers SE 5.8 mph / 9.3 km/h - N/A   Mostly Cloudy
1:53 AM 26.1°F / -3.3°C 21.0°F / -6.1°C 81% 30.47 in / 1031.7 hPa 10.0 miles / 16.1 kilometers ESE 5.8 mph / 9.3 km/h - N/A   Mostly Cloudy
2:53 AM 27.0°F / -2.8°C 21.0°F / -6.1°C 78% 30.47 in / 1031.7 hPa 10.0 miles / 16.1 kilometers ESE 3.5 mph / 5.6 km/h - N/A   Mostly Cloudy
3:53 AM 26.1°F / -3.3°C 21.0°F / -6.1°C 81% 30.46 in / 1031.5 hPa 10.0 miles / 16.1 kilometers ESE 4.6 mph / 7.4 km/h - N/A   Mostly Cloudy
4:12 AM 24.8°F / -4.0°C 19.4°F / -7.0°C 80% 30.42 in / 1030.0 hPa 10.0 miles / 16.1 kilometers ESE 4.6 mph / 7.4 km/h - N/A   Scattered Clouds
4:53 AM 25.0°F / -3.9°C 19.0°F / -7.2°C 78% 30.46 in / 1031.5 hPa 10.0 miles / 16.1 kilometers ESE 3.5 mph / 5.6 km/h - N/A   Partly Cloudy
5:53 AM 24.1°F / -4.4°C 19.0°F / -7.2°C 81% 30.47 in / 1031.7 hPa 10.0 miles / 16.1 kilometers SE 5.8 mph / 9.3 km/h - N/A   Partly Cloudy
6:53 AM 25.0°F / -3.9°C 19.0°F / -7.2°C 78% 30.48 in / 1032.0 hPa 10.0 miles / 16.1 kilometers ESE 6.9 mph / 11.1 km/h - N/A   Partly Cloudy
7:53 AM 24.1°F / -4.4°C 18.0°F / -7.8°C 77% 30.50 in / 1032.7 hPa 10.0 miles / 16.1 kilometers SE 4.6 mph / 7.4 km/h - N/A   Mostly Cloudy
8:53 AM 26.1°F / -3.3°C 19.9°F / -6.7°C 78% 30.50 in / 1032.7 hPa 10.0 miles / 16.1 kilometers SE 4.6 mph / 7.4 km/h - N/A   Mostly Cloudy
9:53 AM 28.0°F / -2.2°C 19.0°F / -7.2°C 69% 30.51 in / 1032.9 hPa 10.0 miles / 16.1 kilometers ESE 5.8 mph / 9.3 km/h - N/A   Scattered Clouds
10:53 AM 30.9°F / -0.6°C 21.9°F / -5.6°C 69% 30.51 in / 1033.2 hPa 10.0 miles / 16.1 kilometers Calm Calm - N/A   Mostly Cloudy
11:53 AM 34.0°F / 1.1°C 23.0°F / -5.0°C 64% 30.49 in / 1032.3 hPa 10.0 miles / 16.1 kilometers Calm Calm - N/A   Scattered Clouds
12:53 PM 35.1°F / 1.7°C 23.0°F / -5.0°C 61% 30.48 in / 1032.2 hPa 10.0 miles / 16.1 kilometers Calm Calm - N/A   Overcast
1:53 PM 35.1°F / 1.7°C 24.1°F / -4.4°C 64% 30.48 in / 1032.1 hPa 10.0 miles / 16.1 kilometers Calm Calm - N/A   Mostly Cloudy
2:53 PM 35.1°F / 1.7°C 25.0°F / -3.9°C 67% 30.48 in / 1032.2 hPa 10.0 miles / 16.1 kilometers WNW 3.5 mph / 5.6 km/h - N/A   Mostly Cloudy
3:53 PM 35.1°F / 1.7°C 23.0°F / -5.0°C 61% 30.48 in / 1032.1 hPa 10.0 miles / 16.1 kilometers Calm Calm - N/A   Mostly Cloudy
4:53 PM 33.1°F / 0.6°C 19.9°F / -6.7°C 59% 30.49 in / 1032.3 hPa 10.0 miles / 16.1 kilometers North 3.5 mph / 5.6 km/h - N/A   Mostly Cloudy
5:53 PM 32.0°F / 0.0°C 19.9°F / -6.7°C 61% 30.50 in / 1032.8 hPa 10.0 miles / 16.1 kilometers Calm Calm - N/A   Mostly Cloudy
6:53 PM 30.0°F / -1.1°C 21.0°F / -6.1°C 69% 30.49 in / 1032.3 hPa 10.0 miles / 16.1 kilometers Calm Calm - N/A   Partly Cloudy
7:53 PM 32.0°F / 0.0°C 21.9°F / -5.6°C 66% 30.51 in / 1033.0 hPa 10.0 miles / 16.1 kilometers Calm Calm - N/A   Mostly Cloudy
8:53 PM 30.9°F / -0.6°C 21.9°F / -5.6°C 69% 30.51 in / 1033.0 hPa 10.0 miles / 16.1 kilometers ESE 4.6 mph / 7.4 km/h - N/A   Mostly Cloudy
9:53 PM 28.9°F / -1.7°C 21.9°F / -5.6°C 75% 30.51 in / 1033.1 hPa 10.0 miles / 16.1 kilometers ESE 3.5 mph / 5.6 km/h - N/A   Scattered Clouds
10:53 PM 28.9°F / -1.7°C 21.9°F / -5.6°C 75% 30.52 in / 1033.4 hPa 10.0 miles / 16.1 kilometers SE 6.9 mph / 11.1 km/h - N/A   Scattered Clouds
11:53 PM 28.9°F / -1.7°C 23.0°F / -5.0°C 78% 30.50 in / 1032.7 hPa 10.0 miles / 16.1 kilometers SE 6.9 mph / 11.1 km/h - N/A   Mostly Cloudy
Moon Phase
Jan. 13 Jan. 18 Jan. 26 Feb. 03 Feb. 10
Sunrise:07:53 AM (PST) Moon Rise:08:42 AM (PST)1/13
Sunset:04:43 PM (PST) Moon Set:07:42 PM (PST)1/13

Copyright © 2014 The Weather Underground, Inc.